Location: Gleizolles
(44.4833°N, 6.7667°E)
Time: 16:40:27
(UTC+00:00)

KAITUO 1B - Visible Passes

Search period start: 30 November 2022 00:00
Search period end: 10 December 2022 00:00
Orbit: 466 x 485 km, 97.4° (Epoch: 30 November)

Date Brightness Start Highest point End Pass type
(mag) Time Alt. Az. Time Alt. Az. Time Alt. Az.
30 Nov ? 05:48:02 10° NNE 05:51:11 30° E 05:54:20 10° SSE visible
30 Nov ? 16:25:12 10° ESE 16:27:26 16° ENE 16:29:40 10° NNE visible
30 Nov ? 17:57:15 10° SSW 18:00:26 33° W 18:03:39 10° NNW visible
01 Dec ? 05:21:47 10° ENE 05:23:50 15° E 05:25:52 10° SE visible
01 Dec ? 17:29:41 10° S 17:33:11 78° WSW 17:36:42 10° NNW visible
02 Dec ? 17:02:40 10° SE 17:06:00 44° ENE 17:09:22 10° N visible
02 Dec ? 18:38:15 10° WSW 18:39:31 12° W 18:40:47 10° WNW visible
03 Dec ? 05:59:28 10° NNE 06:02:50 42° E 06:06:12 10° S visible
03 Dec ? 16:36:13 10° ESE 16:38:54 21° ENE 16:41:38 10° NNE visible
03 Dec ? 18:09:11 10° SSW 18:12:03 24° W 18:14:58 10° NW visible
04 Dec ? 05:32:48 10° NE 05:35:27 20° E 05:38:06 10° SE visible
04 Dec ? 17:41:16 10° S 17:44:41 54° W 17:48:08 10° NNW visible
05 Dec ? 17:13:57 10° SSE 17:17:24 64° ENE 17:20:52 10° N visible
06 Dec ? 06:10:44 10° NNE 06:14:15 60° E 06:17:45 10° S visible
06 Dec ? 16:47:10 10° SE 16:50:11 28° ENE 16:53:14 10° N visible
06 Dec ? 18:21:02 10° SW 18:23:29 18° W 18:25:57 10° NW visible
07 Dec ? 05:43:47 10° NE 05:46:50 27° E 05:49:53 10° SSE visible
07 Dec ? 17:52:43 10° SSW 17:56:00 38° W 17:59:17 10° NNW visible
08 Dec ? 05:17:36 10° ENE 05:19:18 13° E 05:20:59 10° ESE visible
08 Dec ? 17:25:07 10° SSE 17:28:35 90° ENE 17:32:06 10° NNW visible
09 Dec ? 06:21:52 10° NNE 06:25:26 85° ESE 06:28:58 10° SSW visible
09 Dec ? 16:58:01 10° SE 17:01:16 38° ENE 17:04:33 10° N visible
09 Dec ? 18:32:56 10° WSW 18:34:42 13° W 18:36:29 10° WNW visible
